Year,Month,Day,Hour,Minute,Value (Times are PST for windspeed in km/hr)
2012,12,05,00,00,14.30
2012,12,05,00,01,8.90
2012,12,05,00,02,11.70
2012,12,05,00,03,8.80
2012,12,05,00,04,11.20
2012,12,05,00,05,8.90
2012,12,05,00,06,14.60
2012,12,05,00,07,10.90
2012,12,05,00,08,6.40
2012,12,05,00,09,11.20
2012,12,05,00,10,9.30
2012,12,05,00,11,15.90
2012,12,05,00,12,15.90
2012,12,05,00,13,17.20
2012,12,05,00,14,13.80
2012,12,05,00,15,14.10
2012,12,05,00,16,13.00
2012,12,05,00,17,13.80
2012,12,05,00,18,9.40
2012,12,05,00,19,10.30
2012,12,05,00,20,12.30
2012,12,05,00,21,9.30
2012,12,05,00,22,12.50
2012,12,05,00,23,14.90
2012,12,05,00,24,10.00
2012,12,05,00,25,17.90
2012,12,05,00,26,16.80
2012,12,05,00,27,19.50
2012,12,05,00,28,17.10
2012,12,05,00,29,16.00
2012,12,05,00,30,18.90
2012,12,05,00,31,14.20
2012,12,05,00,32,13.30
2012,12,05,00,33,20.00
2012,12,05,00,34,15.20
2012,12,05,00,35,12.60
2012,12,05,00,36,9.20
2012,12,05,00,37,11.60
2012,12,05,00,38,10.40
2012,12,05,00,39,13.50
2012,12,05,00,40,14.90
2012,12,05,00,41,17.70
2012,12,05,00,42,11.00
2012,12,05,00,43,9.30
2012,12,05,00,44,8.70
2012,12,05,00,45,15.00
2012,12,05,00,46,19.70
2012,12,05,00,47,16.50
2012,12,05,00,48,10.50
2012,12,05,00,49,15.40
2012,12,05,00,50,9.40
2012,12,05,00,51,12.50
2012,12,05,00,52,24.00
2012,12,05,00,53,19.00
2012,12,05,00,54,23.70
2012,12,05,00,55,17.60
2012,12,05,00,56,15.10
2012,12,05,00,57,12.40
2012,12,05,00,58,19.20
2012,12,05,00,59,16.60
2012,12,05,01,00,11.00
2012,12,05,01,01,19.20
2012,12,05,01,02,13.70
2012,12,05,01,03,20.50
2012,12,05,01,04,18.90
2012,12,05,01,05,19.90
2012,12,05,01,06,11.30
2012,12,05,01,07,10.50
2012,12,05,01,08,19.50
2012,12,05,01,09,18.40
2012,12,05,01,10,16.60
2012,12,05,01,11,25.90
2012,12,05,01,12,17.50
2012,12,05,01,13,12.90
2012,12,05,01,14,21.00
2012,12,05,01,15,19.50
2012,12,05,01,16,9.10
2012,12,05,01,17,13.40
2012,12,05,01,18,12.20
2012,12,05,01,19,15.40
2012,12,05,01,20,17.60
2012,12,05,01,21,14.40
2012,12,05,01,22,12.50
2012,12,05,01,23,14.00
2012,12,05,01,24,22.70
2012,12,05,01,25,19.20
2012,12,05,01,26,15.70
2012,12,05,01,27,18.40
2012,12,05,01,28,13.80
2012,12,05,01,29,7.70
2012,12,05,01,30,16.50
2012,12,05,01,31,17.10
2012,12,05,01,32,23.50
2012,12,05,01,33,16.90
2012,12,05,01,34,20.80
2012,12,05,01,35,20.50
2012,12,05,01,36,23.40
2012,12,05,01,37,23.20
2012,12,05,01,38,21.20
2012,12,05,01,39,20.60
2012,12,05,01,40,16.90
2012,12,05,01,41,18.30
2012,12,05,01,42,15.00
2012,12,05,01,43,15.80
2012,12,05,01,44,15.50
2012,12,05,01,45,14.00
2012,12,05,01,46,13.20
2012,12,05,01,47,18.30
2012,12,05,01,48,17.20
2012,12,05,01,49,16.40
2012,12,05,01,50,20.00
2012,12,05,01,51,13.50
2012,12,05,01,52,12.60
2012,12,05,01,53,15.50
2012,12,05,01,54,15.30
2012,12,05,01,55,14.70
2012,12,05,01,56,22.30
2012,12,05,01,57,12.60
2012,12,05,01,58,15.00
2012,12,05,01,59,11.50
2012,12,05,02,00,15.80
2012,12,05,02,01,19.20
2012,12,05,02,02,14.50
2012,12,05,02,03,16.00
2012,12,05,02,04,14.80
2012,12,05,02,05,11.90
2012,12,05,02,06,17.10
2012,12,05,02,07,16.30
2012,12,05,02,08,16.00
2012,12,05,02,09,15.70
2012,12,05,02,10,17.80
2012,12,05,02,11,32.20
2012,12,05,02,12,19.70
2012,12,05,02,13,12.00
2012,12,05,02,14,16.10
2012,12,05,02,15,19.70
2012,12,05,02,16,15.50
2012,12,05,02,17,17.70
2012,12,05,02,18,14.00
2012,12,05,02,19,14.90
2012,12,05,02,20,11.70
2012,12,05,02,21,10.70
2012,12,05,02,22,8.70
2012,12,05,02,23,16.70
2012,12,05,02,24,14.90
2012,12,05,02,25,13.50
2012,12,05,02,26,16.90
2012,12,05,02,27,19.70
2012,12,05,02,28,11.80
2012,12,05,02,29,10.70
2012,12,05,02,30,11.40
2012,12,05,02,31,10.60
2012,12,05,02,32,14.90
2012,12,05,02,33,13.80
2012,12,05,02,34,18.30
2012,12,05,02,35,9.20
2012,12,05,02,36,20.50
2012,12,05,02,37,15.70
2012,12,05,02,38,15.50
2012,12,05,02,39,9.80
2012,12,05,02,40,8.10
2012,12,05,02,41,14.80
2012,12,05,02,42,14.20
2012,12,05,02,43,15.00
2012,12,05,02,44,9.60
2012,12,05,02,45,8.10
2012,12,05,02,46,17.50
2012,12,05,02,47,20.40
2012,12,05,02,48,21.10
2012,12,05,02,49,18.30
2012,12,05,02,50,21.80
2012,12,05,02,51,14.50
2012,12,05,02,52,18.70
2012,12,05,02,53,13.10
2012,12,05,02,54,14.00
2012,12,05,02,55,21.20
2012,12,05,02,56,16.60
2012,12,05,02,57,14.60
2012,12,05,02,58,13.10
2012,12,05,02,59,13.70
2012,12,05,03,00,15.30
2012,12,05,03,01,11.10
2012,12,05,03,02,15.90
2012,12,05,03,03,16.10
2012,12,05,03,04,13.10
2012,12,05,03,05,14.20
2012,12,05,03,06,14.20
2012,12,05,03,07,11.50
2012,12,05,03,08,19.20
2012,12,05,03,09,14.70
2012,12,05,03,10,11.20
2012,12,05,03,11,20.90
2012,12,05,03,12,22.00
2012,12,05,03,13,17.50
2012,12,05,03,14,14.30
2012,12,05,03,15,10.70
2012,12,05,03,16,14.50
2012,12,05,03,17,16.20
2012,12,05,03,18,13.00
2012,12,05,03,19,16.00
2012,12,05,03,20,12.00
2012,12,05,03,21,9.90
2012,12,05,03,22,18.30
2012,12,05,03,23,16.50
2012,12,05,03,24,21.50
2012,12,05,03,25,15.90
2012,12,05,03,26,13.70
2012,12,05,03,27,23.80
2012,12,05,03,28,18.30
2012,12,05,03,29,11.80
2012,12,05,03,30,20.20
2012,12,05,03,31,21.70
2012,12,05,03,32,14.80
2012,12,05,03,33,10.90
2012,12,05,03,34,16.00
2012,12,05,03,35,17.50
2012,12,05,03,36,19.10
2012,12,05,03,37,18.40
2012,12,05,03,38,16.20
2012,12,05,03,39,8.80
2012,12,05,03,40,15.00
2012,12,05,03,41,20.30
2012,12,05,03,42,21.20
2012,12,05,03,43,21.90
2012,12,05,03,44,22.10
2012,12,05,03,45,15.20
2012,12,05,03,46,17.60
2012,12,05,03,47,12.40
2012,12,05,03,48,24.70
2012,12,05,03,49,18.30
2012,12,05,03,50,24.10
2012,12,05,03,51,17.50
2012,12,05,03,52,16.20
2012,12,05,03,53,24.90
2012,12,05,03,54,16.30
2012,12,05,03,55,18.20
2012,12,05,03,56,18.10
2012,12,05,03,57,19.30
2012,12,05,03,58,14.10
2012,12,05,03,59,22.10
2012,12,05,04,00,17.00
2012,12,05,04,01,18.40
2012,12,05,04,02,10.10
2012,12,05,04,03,9.20
2012,12,05,04,04,19.20
2012,12,05,04,05,16.90
2012,12,05,04,06,17.70
2012,12,05,04,07,20.50
2012,12,05,04,08,17.50
2012,12,05,04,09,12.60
2012,12,05,04,10,17.10
2012,12,05,04,11,17.30
2012,12,05,04,12,20.20
2012,12,05,04,13,19.30
2012,12,05,04,14,13.90
2012,12,05,04,15,15.70
2012,12,05,04,16,13.90
2012,12,05,04,17,18.80
2012,12,05,04,18,19.50
2012,12,05,04,19,15.20
2012,12,05,04,20,13.50
2012,12,05,04,21,10.50
2012,12,05,04,22,11.90
2012,12,05,04,23,12.90
2012,12,05,04,24,10.90
2012,12,05,04,25,13.70
2012,12,05,04,26,18.40
2012,12,05,04,27,15.20
2012,12,05,04,28,15.30
2012,12,05,04,29,7.10
2012,12,05,04,30,12.60
2012,12,05,04,31,12.20
2012,12,05,04,32,14.60
2012,12,05,04,33,11.20
2012,12,05,04,34,15.80
2012,12,05,04,35,12.00
2012,12,05,04,36,8.60
2012,12,05,04,37,6.40
2012,12,05,04,38,10.80
2012,12,05,04,39,8.70
2012,12,05,04,40,8.00
2012,12,05,04,41,17.00
2012,12,05,04,42,16.60
2012,12,05,04,43,5.30
2012,12,05,04,44,14.20
2012,12,05,04,45,8.40
2012,12,05,04,46,8.10
2012,12,05,04,47,10.50
2012,12,05,04,48,18.10
2012,12,05,04,49,10.60
2012,12,05,04,50,16.40
2012,12,05,04,51,6.10
2012,12,05,04,52,7.80
2012,12,05,04,53,7.10
2012,12,05,04,54,1.80
2012,12,05,04,55,10.10
2012,12,05,04,56,7.30
2012,12,05,04,57,7.80
2012,12,05,04,58,6.60
2012,12,05,04,59,15.50
2012,12,05,05,00,10.40
2012,12,05,05,01,9.80
2012,12,05,05,02,8.10
2012,12,05,05,03,5.70
2012,12,05,05,04,2.70
2012,12,05,05,05,7.50
2012,12,05,05,06,5.20
2012,12,05,05,07,3.60
2012,12,05,05,08,4.40
2012,12,05,05,09,8.70
2012,12,05,05,10,7.50
2012,12,05,05,11,8.00
2012,12,05,05,12,6.90
2012,12,05,05,13,4.10
2012,12,05,05,14,10.00
2012,12,05,05,15,7.80
2012,12,05,05,16,11.50
2012,12,05,05,17,14.80
2012,12,05,05,18,8.00
2012,12,05,05,19,6.10
2012,12,05,05,20,7.80
2012,12,05,05,21,3.10
2012,12,05,05,22,2.80
2012,12,05,05,23,8.30
2012,12,05,05,24,8.70
2012,12,05,05,25,3.90
2012,12,05,05,26,6.10
2012,12,05,05,27,4.80
2012,12,05,05,28,8.50
2012,12,05,05,29,14.90
2012,12,05,05,30,12.90
2012,12,05,05,31,6.20
2012,12,05,05,32,6.40
2012,12,05,05,33,5.10
2012,12,05,05,34,3.40
2012,12,05,05,35,4.60
2012,12,05,05,36,1.90
2012,12,05,05,37,2.10
2012,12,05,05,38,6.10
2012,12,05,05,39,2.30
2012,12,05,05,40,0.60
2012,12,05,05,41,2.50
2012,12,05,05,42,4.30
2012,12,05,05,43,6.20
2012,12,05,05,44,2.80
2012,12,05,05,45,0.20
2012,12,05,05,46,2.70
2012,12,05,05,47,2.00
2012,12,05,05,48,4.90
2012,12,05,05,49,0.20
2012,12,05,05,50,0.00
2012,12,05,05,51,1.00
2012,12,05,05,52,0.00
2012,12,05,05,53,0.50
2012,12,05,05,54,0.50
2012,12,05,05,55,2.30
2012,12,05,05,56,0.70
2012,12,05,05,57,3.10
2012,12,05,05,58,1.20
2012,12,05,05,59,0.60
2012,12,05,06,00,2.50
2012,12,05,06,01,2.90
2012,12,05,06,02,2.40
2012,12,05,06,03,2.20
2012,12,05,06,04,3.00
2012,12,05,06,05,4.70
2012,12,05,06,06,3.30
2012,12,05,06,07,1.20
2012,12,05,06,08,3.30
2012,12,05,06,09,1.60
2012,12,05,06,10,3.80
2012,12,05,06,11,0.10
2012,12,05,06,12,7.20
2012,12,05,06,13,9.70
2012,12,05,06,14,7.40
2012,12,05,06,15,7.00
2012,12,05,06,16,7.30
2012,12,05,06,17,1.90
2012,12,05,06,18,0.50
2012,12,05,06,19,0.90
2012,12,05,06,20,7.30
2012,12,05,06,21,5.40
2012,12,05,06,22,3.40
2012,12,05,06,23,2.00
2012,12,05,06,24,1.80
2012,12,05,06,25,2.10
2012,12,05,06,26,1.10
2012,12,05,06,27,0.30
2012,12,05,06,28,4.50
2012,12,05,06,29,3.20
2012,12,05,06,30,2.50
2012,12,05,06,31,2.90
2012,12,05,06,32,3.80
2012,12,05,06,33,1.70
2012,12,05,06,34,3.30
2012,12,05,06,35,1.40
2012,12,05,06,36,0.60
2012,12,05,06,37,3.30
2012,12,05,06,38,3.10
2012,12,05,06,39,3.10
2012,12,05,06,40,3.90
2012,12,05,06,41,3.60
2012,12,05,06,42,2.20
2012,12,05,06,43,3.40
2012,12,05,06,44,0.90
2012,12,05,06,45,6.40
2012,12,05,06,46,7.00
2012,12,05,06,47,5.40
2012,12,05,06,48,6.90
2012,12,05,06,49,4.30
2012,12,05,06,50,8.00
2012,12,05,06,51,3.40
2012,12,05,06,52,3.10
2012,12,05,06,53,3.10
2012,12,05,06,54,7.00
2012,12,05,06,55,5.50
2012,12,05,06,56,4.20
2012,12,05,06,57,3.60
2012,12,05,06,58,4.70
2012,12,05,06,59,7.60
2012,12,05,07,00,6.50
2012,12,05,07,01,7.70
2012,12,05,07,02,9.50
2012,12,05,07,03,8.50
2012,12,05,07,04,11.00
2012,12,05,07,05,7.50
2012,12,05,07,06,6.80
2012,12,05,07,07,7.40
2012,12,05,07,08,9.00
2012,12,05,07,09,9.80
2012,12,05,07,10,10.10
2012,12,05,07,11,8.70
2012,12,05,07,12,7.40
2012,12,05,07,13,6.20
2012,12,05,07,14,5.50
2012,12,05,07,15,5.10
2012,12,05,07,16,5.80
2012,12,05,07,17,5.90
2012,12,05,07,18,7.90
2012,12,05,07,19,3.30
2012,12,05,07,20,2.20
2012,12,05,07,21,3.70
2012,12,05,07,22,2.10
2012,12,05,07,23,5.10
2012,12,05,07,24,2.70
2012,12,05,07,25,3.90
2012,12,05,07,26,4.70
2012,12,05,07,27,1.40
2012,12,05,07,28,3.10
2012,12,05,07,29,3.50
2012,12,05,07,30,4.00
2012,12,05,07,31,4.10
2012,12,05,07,32,3.80
2012,12,05,07,33,3.50
2012,12,05,07,34,2.10
2012,12,05,07,35,4.30
2012,12,05,07,36,4.30
2012,12,05,07,37,2.30
2012,12,05,07,38,4.10
2012,12,05,07,39,3.00
2012,12,05,07,40,5.70
2012,12,05,07,41,3.40
2012,12,05,07,42,2.80
2012,12,05,07,43,2.60
2012,12,05,07,44,6.00
2012,12,05,07,45,4.00
2012,12,05,07,46,1.90
2012,12,05,07,47,3.80
2012,12,05,07,48,0.30
2012,12,05,07,49,0.20
2012,12,05,07,50,0.60
2012,12,05,07,51,1.40
2012,12,05,07,52,4.50
2012,12,05,07,53,3.90
2012,12,05,07,54,1.70
2012,12,05,07,55,2.80
2012,12,05,07,56,1.20
2012,12,05,07,57,3.90
2012,12,05,07,58,0.30
2012,12,05,07,59,1.70
2012,12,05,08,00,1.40
2012,12,05,08,01,0.10
2012,12,05,08,02,1.40
2012,12,05,08,03,4.20
2012,12,05,08,04,3.30
2012,12,05,08,05,7.40
2012,12,05,08,06,6.80
2012,12,05,08,07,2.80
2012,12,05,08,08,7.70
2012,12,05,08,09,7.10
2012,12,05,08,10,6.80
2012,12,05,08,11,6.50
2012,12,05,08,12,3.50
2012,12,05,08,13,4.30
2012,12,05,08,14,2.80
2012,12,05,08,15,0.00
2012,12,05,08,16,1.90
2012,12,05,08,17,3.90
2012,12,05,08,18,2.50
2012,12,05,08,19,2.00
2012,12,05,08,20,1.90
2012,12,05,08,21,2.30
2012,12,05,08,22,2.20
2012,12,05,08,23,3.00
2012,12,05,08,24,4.40
2012,12,05,08,25,3.10
2012,12,05,08,26,3.10
2012,12,05,08,27,4.60
2012,12,05,08,28,3.50
2012,12,05,08,29,4.40
2012,12,05,08,30,5.20
2012,12,05,08,31,5.10
2012,12,05,08,32,6.00
2012,12,05,08,33,6.80
2012,12,05,08,34,6.90
2012,12,05,08,35,8.00
2012,12,05,08,36,8.10
2012,12,05,08,37,4.30
2012,12,05,08,38,5.20
2012,12,05,08,39,5.00
2012,12,05,08,40,9.00
2012,12,05,08,41,5.30
2012,12,05,08,42,4.20
2012,12,05,08,43,6.40
2012,12,05,08,44,3.30
2012,12,05,08,45,4.70
2012,12,05,08,46,4.60
2012,12,05,08,47,4.00
2012,12,05,08,48,3.50
2012,12,05,08,49,4.90
2012,12,05,08,50,5.40
2012,12,05,08,51,5.70
2012,12,05,08,52,2.60
2012,12,05,08,53,7.80
2012,12,05,08,54,7.30
2012,12,05,08,55,8.00
2012,12,05,08,56,3.50
2012,12,05,08,57,6.50
2012,12,05,08,58,6.10
2012,12,05,08,59,4.00
2012,12,05,09,00,4.70
2012,12,05,09,01,8.70
2012,12,05,09,02,8.60
2012,12,05,09,03,5.30
2012,12,05,09,04,6.40
2012,12,05,09,05,6.00
2012,12,05,09,06,10.40
2012,12,05,09,07,9.60
2012,12,05,09,08,5.40
2012,12,05,09,09,10.10
2012,12,05,09,10,9.20
2012,12,05,09,11,9.70
2012,12,05,09,12,7.20
2012,12,05,09,13,8.70
2012,12,05,09,14,13.40
2012,12,05,09,15,9.50
2012,12,05,09,16,9.60
2012,12,05,09,17,10.20
2012,12,05,09,18,10.40
2012,12,05,09,19,10.60
2012,12,05,09,20,10.60
2012,12,05,09,21,11.30
2012,12,05,09,22,8.00
2012,12,05,09,23,9.70
2012,12,05,09,24,10.00
2012,12,05,09,25,12.60
2012,12,05,09,26,9.80
2012,12,05,09,27,11.60
2012,12,05,09,28,12.90
2012,12,05,09,29,11.60
2012,12,05,09,30,7.00
2012,12,05,09,31,10.50
2012,12,05,09,32,11.60
2012,12,05,09,33,8.80
2012,12,05,09,34,14.10
2012,12,05,09,35,9.10
2012,12,05,09,36,6.00
2012,12,05,09,37,8.60
2012,12,05,09,38,8.60
2012,12,05,09,39,5.90
2012,12,05,09,40,10.80
2012,12,05,09,41,11.80
2012,12,05,09,42,12.60
2012,12,05,09,43,7.40
2012,12,05,09,44,10.10
2012,12,05,09,45,9.70
2012,12,05,09,46,8.90
2012,12,05,09,47,8.10
2012,12,05,09,48,8.90
2012,12,05,09,49,7.40
2012,12,05,09,50,10.50
2012,12,05,09,51,12.30
2012,12,05,09,52,10.80
2012,12,05,09,53,7.60
2012,12,05,09,54,7.70
2012,12,05,09,55,7.60
2012,12,05,09,56,8.40
2012,12,05,09,57,15.20
2012,12,05,09,58,9.30
2012,12,05,09,59,10.90
2012,12,05,10,00,7.70
2012,12,05,10,01,7.40
2012,12,05,10,02,13.40
2012,12,05,10,03,8.20
2012,12,05,10,04,4.90
2012,12,05,10,05,4.90
2012,12,05,10,06,4.50
2012,12,05,10,07,7.30
2012,12,05,10,08,10.90
2012,12,05,10,09,9.40
2012,12,05,10,10,9.10
2012,12,05,10,11,3.90
2012,12,05,10,12,7.20
2012,12,05,10,13,9.10
2012,12,05,10,14,6.80
2012,12,05,10,15,6.50
2012,12,05,10,16,6.80
2012,12,05,10,17,5.40
2012,12,05,10,18,7.40
2012,12,05,10,19,11.20
2012,12,05,10,20,7.60
2012,12,05,10,21,4.60
2012,12,05,10,22,7.20
2012,12,05,10,23,9.10
2012,12,05,10,24,9.20
2012,12,05,10,25,8.70
2012,12,05,10,26,5.30
2012,12,05,10,27,3.90
2012,12,05,10,28,5.60
2012,12,05,10,29,8.10
2012,12,05,10,30,8.80
2012,12,05,10,31,10.00
2012,12,05,10,32,6.20
2012,12,05,10,33,8.90
2012,12,05,10,34,4.20
2012,12,05,10,35,7.70
2012,12,05,10,36,9.60
2012,12,05,10,37,7.70
2012,12,05,10,38,8.90
2012,12,05,10,39,5.40
2012,12,05,10,40,7.60
2012,12,05,10,41,5.10
2012,12,05,10,42,7.90
2012,12,05,10,43,6.10
2012,12,05,10,44,7.10
2012,12,05,10,45,9.90
2012,12,05,10,46,14.00
2012,12,05,10,47,21.50
2012,12,05,10,48,22.80
2012,12,05,10,49,20.30
2012,12,05,10,50,15.60
2012,12,05,10,51,20.00
2012,12,05,10,52,10.10
2012,12,05,10,53,10.50
2012,12,05,10,54,8.50
2012,12,05,10,55,6.60
2012,12,05,10,56,12.40
2012,12,05,10,57,18.40
2012,12,05,10,58,18.80
2012,12,05,10,59,18.70
2012,12,05,11,00,11.50
2012,12,05,11,01,7.70
2012,12,05,11,02,6.40
2012,12,05,11,03,5.60
2012,12,05,11,04,7.20
2012,12,05,11,05,9.60
2012,12,05,11,06,9.10
2012,12,05,11,07,10.60
2012,12,05,11,08,5.30
2012,12,05,11,09,5.10
2012,12,05,11,10,5.50
2012,12,05,11,11,8.10
2012,12,05,11,12,10.50
2012,12,05,11,13,7.90
2012,12,05,11,14,7.60
2012,12,05,11,15,9.90
2012,12,05,11,16,8.80
2012,12,05,11,17,7.30
2012,12,05,11,18,8.90
2012,12,05,11,19,7.50
2012,12,05,11,20,7.50
2012,12,05,11,21,9.80
2012,12,05,11,22,9.40
2012,12,05,11,23,7.70
2012,12,05,11,24,11.50
2012,12,05,11,25,6.70
2012,12,05,11,26,7.10
2012,12,05,11,27,6.50
2012,12,05,11,28,5.70
2012,12,05,11,29,8.10
2012,12,05,11,30,7.80
2012,12,05,11,31,6.40
2012,12,05,11,32,7.20
2012,12,05,11,33,7.30
2012,12,05,11,34,6.00
2012,12,05,11,35,5.00
2012,12,05,11,36,2.50
2012,12,05,11,37,7.30
2012,12,05,11,38,5.80
2012,12,05,11,39,5.70
2012,12,05,11,40,5.70
2012,12,05,11,41,4.40
2012,12,05,11,42,6.30
2012,12,05,11,43,1.30
2012,12,05,11,44,5.80
2012,12,05,11,45,6.30
2012,12,05,11,46,4.60
2012,12,05,11,47,5.70
2012,12,05,11,48,5.60
2012,12,05,11,49,4.70
2012,12,05,11,50,3.10
2012,12,05,11,51,1.90
2012,12,05,11,52,3.70
2012,12,05,11,53,9.60
2012,12,05,11,54,6.70
2012,12,05,11,55,5.80
2012,12,05,11,56,5.60
2012,12,05,11,57,6.40
2012,12,05,11,58,5.20
2012,12,05,11,59,6.40
2012,12,05,12,00,7.70
2012,12,05,12,01,7.00
2012,12,05,12,02,6.10
2012,12,05,12,03,3.00
2012,12,05,12,04,6.10
2012,12,05,12,05,5.20
2012,12,05,12,06,7.60
2012,12,05,12,07,6.10
2012,12,05,12,08,6.90
2012,12,05,12,09,9.00
2012,12,05,12,10,7.90
2012,12,05,12,11,6.30
2012,12,05,12,12,7.50
2012,12,05,12,13,5.70
2012,12,05,12,14,10.20
2012,12,05,12,15,7.80
2012,12,05,12,16,4.70
2012,12,05,12,17,7.70
2012,12,05,12,18,4.50
2012,12,05,12,19,5.40
2012,12,05,12,20,4.60
2012,12,05,12,21,7.50
2012,12,05,12,22,8.10
2012,12,05,12,23,7.40
2012,12,05,12,24,3.60
2012,12,05,12,25,3.90
2012,12,05,12,26,5.30
2012,12,05,12,27,1.80
2012,12,05,12,28,1.30
2012,12,05,12,29,1.60
2012,12,05,12,30,4.00
2012,12,05,12,31,6.80
2012,12,05,12,32,6.90
2012,12,05,12,33,5.70
2012,12,05,12,34,5.00
2012,12,05,12,35,2.60
2012,12,05,12,36,2.40
2012,12,05,12,37,3.70
2012,12,05,12,38,3.70
2012,12,05,12,39,5.00
2012,12,05,12,40,4.50
2012,12,05,12,41,3.20
2012,12,05,12,42,2.00
2012,12,05,12,43,1.10
2012,12,05,12,44,3.10
2012,12,05,12,45,2.70
2012,12,05,12,46,0.80
2012,12,05,12,47,2.20
2012,12,05,12,48,4.70
2012,12,05,12,49,4.80
2012,12,05,12,50,5.20
2012,12,05,12,51,2.20
2012,12,05,12,52,4.10
2012,12,05,12,53,2.00
2012,12,05,12,54,2.00
2012,12,05,12,55,6.60
2012,12,05,12,56,5.30
2012,12,05,12,57,6.40
2012,12,05,12,58,4.50
2012,12,05,12,59,2.70
2012,12,05,13,00,1.40
2012,12,05,13,01,1.60
2012,12,05,13,02,1.70
2012,12,05,13,03,1.90
2012,12,05,13,04,1.90
2012,12,05,13,05,2.70
2012,12,05,13,06,2.90
2012,12,05,13,07,5.40
2012,12,05,13,08,4.80
2012,12,05,13,09,6.00
2012,12,05,13,10,2.20
2012,12,05,13,11,1.40
2012,12,05,13,12,3.70
2012,12,05,13,13,6.90
2012,12,05,13,14,7.70
2012,12,05,13,15,6.70
2012,12,05,13,16,8.90
2012,12,05,13,17,10.20
2012,12,05,13,18,7.60
2012,12,05,13,19,13.40
2012,12,05,13,20,12.60
2012,12,05,13,21,14.30
2012,12,05,13,22,12.00
2012,12,05,13,23,9.90
2012,12,05,13,24,6.10
2012,12,05,13,25,5.60
2012,12,05,13,26,7.50
2012,12,05,13,27,9.10
2012,12,05,13,28,10.00
2012,12,05,13,29,8.50
2012,12,05,13,30,6.90
2012,12,05,13,31,6.20
2012,12,05,13,32,6.60
2012,12,05,13,33,9.10
2012,12,05,13,34,11.50
2012,12,05,13,35,8.30
2012,12,05,13,36,7.20
2012,12,05,13,37,6.60
2012,12,05,13,38,6.30
2012,12,05,13,39,5.90
2012,12,05,13,40,6.70
2012,12,05,13,41,7.00
2012,12,05,13,42,6.40
2012,12,05,13,43,4.00
2012,12,05,13,44,1.00
2012,12,05,13,45,4.10
2012,12,05,13,46,8.00
2012,12,05,13,47,4.20
2012,12,05,13,48,5.50
2012,12,05,13,49,5.30
2012,12,05,13,50,3.10
2012,12,05,13,51,2.20
2012,12,05,13,52,3.50
2012,12,05,13,53,1.90
2012,12,05,13,54,1.00
2012,12,05,13,55,1.70
2012,12,05,13,56,2.20
2012,12,05,13,57,4.20
2012,12,05,13,58,5.00
2012,12,05,13,59,5.40
2012,12,05,14,00,5.60
2012,12,05,14,01,2.40
2012,12,05,14,02,3.40
2012,12,05,14,03,9.10
2012,12,05,14,04,9.60
2012,12,05,14,05,6.40
2012,12,05,14,06,8.10
2012,12,05,14,07,6.00
2012,12,05,14,08,5.10
2012,12,05,14,09,4.00
2012,12,05,14,10,6.80
2012,12,05,14,11,2.40
2012,12,05,14,12,3.50
2012,12,05,14,13,4.40
2012,12,05,14,14,1.40
2012,12,05,14,15,1.40
2012,12,05,14,16,1.40
2012,12,05,14,17,1.40
2012,12,05,14,18,0.10
2012,12,05,14,19,0.00
2012,12,05,14,20,0.20
2012,12,05,14,21,0.10
2012,12,05,14,22,0.20
2012,12,05,14,23,1.40
2012,12,05,14,24,1.50
2012,12,05,14,25,1.10
2012,12,05,14,26,0.00
2012,12,05,14,27,0.00
2012,12,05,14,28,0.80
2012,12,05,14,29,0.40
2012,12,05,14,30,0.10
2012,12,05,14,31,0.20
2012,12,05,14,32,1.90
2012,12,05,14,33,0.40
2012,12,05,14,34,0.10
2012,12,05,14,35,0.20
2012,12,05,14,36,0.20
2012,12,05,14,37,0.70
2012,12,05,14,38,2.50
2012,12,05,14,39,1.80
2012,12,05,14,40,0.30
2012,12,05,14,41,2.20
2012,12,05,14,42,0.20
2012,12,05,14,43,0.00
2012,12,05,14,44,0.00
2012,12,05,14,45,0.10
2012,12,05,14,46,1.10
2012,12,05,14,47,0.00
2012,12,05,14,48,0.20
2012,12,05,14,49,0.00
2012,12,05,14,50,1.40
2012,12,05,14,51,0.20
2012,12,05,14,52,0.00
2012,12,05,14,53,0.00
2012,12,05,14,54,0.00
2012,12,05,14,55,0.00
2012,12,05,14,56,0.00
2012,12,05,14,57,0.60
2012,12,05,14,58,1.10
2012,12,05,14,59,1.40
2012,12,05,15,00,0.10
2012,12,05,15,01,0.40
2012,12,05,15,02,0.20
2012,12,05,15,03,1.10
2012,12,05,15,04,0.00
2012,12,05,15,05,0.00
2012,12,05,15,06,0.20
2012,12,05,15,07,0.70
2012,12,05,15,08,2.20
2012,12,05,15,09,0.10
2012,12,05,15,10,0.00
2012,12,05,15,11,1.00
2012,12,05,15,12,1.50
2012,12,05,15,13,1.40
2012,12,05,15,14,1.20
2012,12,05,15,15,0.00
2012,12,05,15,16,0.20
2012,12,05,15,17,1.70
2012,12,05,15,18,1.90
2012,12,05,15,19,0.50
2012,12,05,15,20,0.00
2012,12,05,15,21,0.00
2012,12,05,15,22,0.00
2012,12,05,15,23,0.00
2012,12,05,15,24,0.60
2012,12,05,15,25,0.00
2012,12,05,15,26,0.10
2012,12,05,15,27,0.00
2012,12,05,15,28,0.00
2012,12,05,15,29,0.60
2012,12,05,15,30,1.30
2012,12,05,15,31,0.00
2012,12,05,15,32,0.30
2012,12,05,15,33,0.10
2012,12,05,15,34,0.00
2012,12,05,15,35,0.10
2012,12,05,15,36,0.00
2012,12,05,15,37,0.10
2012,12,05,15,38,0.30
2012,12,05,15,39,0.60
2012,12,05,15,40,0.90
2012,12,05,15,41,0.50
2012,12,05,15,42,0.10
2012,12,05,15,43,0.10
2012,12,05,15,44,0.80
2012,12,05,15,45,2.30
2012,12,05,15,46,1.90
2012,12,05,15,47,0.80
2012,12,05,15,48,0.40
2012,12,05,15,49,2.40
2012,12,05,15,50,0.00
2012,12,05,15,51,0.00
2012,12,05,15,52,0.00
2012,12,05,15,53,0.00
2012,12,05,15,54,1.10
2012,12,05,15,55,0.80
2012,12,05,15,56,0.00
2012,12,05,15,57,0.00
2012,12,05,15,58,0.50
2012,12,05,15,59,0.10
2012,12,05,16,00,0.50
2012,12,05,16,01,1.40
2012,12,05,16,02,1.20
2012,12,05,16,03,0.00
2012,12,05,16,04,0.50
2012,12,05,16,05,0.60
2012,12,05,16,06,1.80
2012,12,05,16,07,1.00
2012,12,05,16,08,0.00
2012,12,05,16,09,0.10
2012,12,05,16,10,0.00
2012,12,05,16,11,0.00
2012,12,05,16,12,0.00
2012,12,05,16,13,0.00
2012,12,05,16,14,0.10
2012,12,05,16,15,0.00
2012,12,05,16,16,0.00
2012,12,05,16,17,0.00
2012,12,05,16,18,0.00
2012,12,05,16,19,0.00
2012,12,05,16,20,0.00
2012,12,05,16,21,0.00
2012,12,05,16,22,0.00
2012,12,05,16,23,0.00
2012,12,05,16,24,0.00
2012,12,05,16,25,0.00
2012,12,05,16,26,0.00
2012,12,05,16,27,0.00
2012,12,05,16,28,0.00
2012,12,05,16,29,0.00
2012,12,05,16,30,0.00
2012,12,05,16,31,0.00
2012,12,05,16,32,0.00
2012,12,05,16,33,0.00
2012,12,05,16,34,0.00
2012,12,05,16,35,0.00
2012,12,05,16,36,0.00
2012,12,05,16,37,0.00
2012,12,05,16,38,0.00
2012,12,05,16,39,0.00
2012,12,05,16,40,0.00
2012,12,05,16,41,0.10
2012,12,05,16,42,0.00
2012,12,05,16,43,0.00
2012,12,05,16,44,0.00
2012,12,05,16,45,0.00
2012,12,05,16,46,0.60
2012,12,05,16,47,0.00
2012,12,05,16,48,0.00
2012,12,05,16,49,0.00
2012,12,05,16,50,0.00
2012,12,05,16,51,0.00
2012,12,05,16,52,0.00
2012,12,05,16,53,0.20
2012,12,05,16,54,0.30
2012,12,05,16,55,0.40
2012,12,05,16,56,1.20
2012,12,05,16,57,5.10
2012,12,05,16,58,3.50
2012,12,05,16,59,0.30
2012,12,05,17,00,1.00
2012,12,05,17,01,0.80
2012,12,05,17,02,0.90
2012,12,05,17,03,0.70
2012,12,05,17,04,0.20
2012,12,05,17,05,0.00
2012,12,05,17,06,0.00
2012,12,05,17,07,0.10
2012,12,05,17,08,1.90
2012,12,05,17,09,3.90
2012,12,05,17,10,1.60
2012,12,05,17,11,2.30
2012,12,05,17,12,1.30
2012,12,05,17,13,1.30
2012,12,05,17,14,4.90
2012,12,05,17,15,1.80
2012,12,05,17,16,1.00
2012,12,05,17,17,2.00
2012,12,05,17,18,2.00
2012,12,05,17,19,3.90
2012,12,05,17,20,0.80
2012,12,05,17,21,1.90
2012,12,05,17,22,6.10
2012,12,05,17,23,5.40
2012,12,05,17,24,2.20
2012,12,05,17,25,2.80
2012,12,05,17,26,0.20
2012,12,05,17,27,5.60
2012,12,05,17,28,3.80
2012,12,05,17,29,1.40
2012,12,05,17,30,1.20
2012,12,05,17,31,3.80
2012,12,05,17,32,3.10
2012,12,05,17,33,3.40
2012,12,05,17,34,1.10
2012,12,05,17,35,1.40
2012,12,05,17,36,1.60
2012,12,05,17,37,3.90
2012,12,05,17,38,4.90
2012,12,05,17,39,2.40
2012,12,05,17,40,3.00
2012,12,05,17,41,2.40
2012,12,05,17,42,1.70
2012,12,05,17,43,3.90
2012,12,05,17,44,1.30
2012,12,05,17,45,2.40
2012,12,05,17,46,5.50
2012,12,05,17,47,5.70
2012,12,05,17,48,7.00
2012,12,05,17,49,6.40
2012,12,05,17,50,2.10
2012,12,05,17,51,5.20